Location: Franzen
(48.6167°N, 15.3833°E)
Time: 19:05:05
(UTC+00:00)

Transit 2A - Pass Details

Date: 11 August 2021
Orbit: 594 x 964 km, 66.7° (Epoch: 27 September)

Event Time Altitude Azimuth Distance (km) Brightness Sun altitude
Rises 06:27:39 0° 300° (WNW) 3,017 8.6 25.1°
Reaches altitude 10° 06:32:05 10° 339° (NNW) 2,203 8.2 25.9°
Maximum altitude 06:33:13 11° 352° (N) 2,184 8.3 26.1°
Drops below altitude 10° 06:34:22 10° 5° (N) 2,258 8.5 26.3°
Sets 06:39:12 0° 43° (NE) 3,305 9.8 27.0°
